Location: Emblem
(62.4273°N, 6.4710°E)
Time: 06:50:59
(UTC+02:00)

Transit 2A - Pass Details

Date: 09 March 2024
Orbit: 596 x 956 km, 66.7° (Epoch: 24 April)

Event Time Altitude Azimuth Distance (km) Brightness Sun altitude
Rises 00:07:55 0° 302° (WNW) 2,939 9.6 -31.6°
Reaches altitude 10° 00:10:07 10° 302° (WNW) 2,066 8.7 -31.6°
Enters shadow 00:11:57 24° 300° (WNW) 1,367 7.6 -31.7°
